STARLINK-31566, 59475

Orbit data source: Space-Track

STARLINK-31566, 59475 is a payload satellite owned by SpaceX/Seattle (US) in LEO that was launched on Wed, 10 Apr 2024 UTC via an FALCON 9 launch vehicle from the Air Force Eastern Test Range (AFETR). Payload-class satellites include a variety of spacecraft equipped with specific instruments for various scientific and technological missions. These include communications satellites like Starlink; space stations such as the ISS; scientific satellites like the Hubble; Earth observation satellites from companies like Planet Labs, Umbra, and HawkEye 360; GPS; miniature CubeSats for education and research; and military/defense satellites.

Loading next visibility...
Identifier
59475, 2024-068W
Orbit
LEO
Country
Flag of USUS
Related business
Manufacturer
SpaceX/Seattle
Mission
Operational Commercial Communications
Bus & Motor
STARLINK V2M, Unknown motor
Mass
730 kg wet, ~700 kg dry
Launch date (UTC)
2024-04-10 (2 years ago)
Launch vehicle
FALCON 9
Launch site
Air Force Eastern Test Range (AFETR)
Object type
Payload
Rocket body
Debris
Shape & HBR
Box + 2 Pan, 17.7 m
Radar Cross Section
33.884 m², Large (>1 m²)

Expand to show TLE details & history
Last TLE update: 2 days ago

TLE from 2 days ago
0 STARLINK-31566
1 59475U 24068W   26171.01586337  .00000887  00000-0  41768-4 0  9993
2 59475  43.0022 176.5033 0001655 272.0577  88.0085 15.27577831124175
Epoch: 2026-06-20T00:22Z
TLE epoch observation values (Epoch: 2026-06-20T00:22:50.595Z)
Latitude
-0.00001°
Longitude
-97.44407°
Altitude
482.792 km
Speed
7.626 km/s
True Right ascension
11h 46m 00s
True Declination
0° 00' 00"
Sunlit
Object was in daylight at epoch
Visualization orbit readout
Latitude
Unknown
Longitude
Unknown
Altitude
Unknown
Speed
Unknown
Apparent Right ascension
Unknown
Apparent Declination
Unknown
Sunlit
N/A
Visualization observer readout
Local Sidereal Time
21:27:01
Azimuth
Unknown
Elevation
Unknown
Doppler factor
Unknown
Orbital elements
Apogee altitude
486.136 km
Perigee altitude
483.865 km
Semi-major axis
6,863.137 km
Eccentricity
0.00017
Inclination
43.0022°
RAAN
176.5033°
Arg. of periapsis
272.0577°
True anomaly
88.02745°
Mean anomaly
88.0085°
Eccentric anomaly
88.01798°
Mean motion
3.81732 °/min
Orbital period
94.31 mins
BSTAR
0.000041768
Loading maneuver chart data...
Computing Atmospheric mass density...
Loading historical data...
Loading historical data...
Loading historical data...
Loading historical data...
Loading historical data...
Loading historical data...
Loading historical data...

Documentation

Showing up to 5 results
|